This demonstration page uses our WeatherBlox Daily Observations layout. Learn more.

Left ArrowRight Arrow

Hourly Observations for February 1, 2016

Temp ( °F °C ) Dew Point ( °F °C ) Humidity (%) Winds ( mph kmh ) Pressure ( in mb ) Visibility ( mi km ) Precip ( " mm )
12:15 am 00:15 Clear 32 undefined 22 -5.6 66 66 N N/A 30.03 1017 10 16 N/A
12:35 am 00:35 Clear 32 undefined 21 -5.9 65 65 N N/A 30.03 1017 10 16 N/A
12:55 am 00:55 Clear 31 -0.6 21 -6 67 67 N N/A 30.06 1018 10 16 N/A
1:15 am 01:15 Clear 29 -1.7 22 -5.6 75 75 N N/A 30.06 1018 10 16 N/A
1:35 am 01:35 Clear 29 -1.4 21 -6 71 71 N N/A 30.06 1018 10 16 N/A
1:55 am 01:55 Partly Cloudy 29 -1.9 21 -6 74 74 N N/A 30.06 1018 10 16 N/A
2:15 am 02:15 Partly Cloudy 27 -2.8 21 -6.3 77 77 N N/A 30.06 1018 10 16 N/A
2:35 am 02:35 Partly Cloudy 26 -3.6 20 -6.4 81 81 N N/A 30.06 1018 10 16 N/A
3:15 am 03:15 Cloudy 27 -2.8 21 -5.9 79 79 N N/A 30.06 1018 10 16 N/A
3:35 am 03:35 Cloudy 27 -2.7 23 -4.9 85 85 N N/A 30.06 1018 10 16 N/A
3:55 am 03:55 Cloudy 28 -2.5 23 -5 83 83 N N/A 30.06 1018 10 16 N/A
4:15 am 04:15 Cloudy 28 -2 22 -5.3 78 78 N N/A 30.06 1018 10 16 N/A
4:35 am 04:35 Cloudy 31 -0.3 22 -5.5 68 68 E 6 9 30.00 1016 10 16 N/A
4:55 am 04:55 Cloudy 32 undefined 23 -5 69 69 E 8 13 30.00 1016 10 16 N/A
5:15 am 05:15 Cloudy 32 0.1 23 -5 69 69 E 8 13 30.00 1016 10 16 N/A
5:35 am 05:35 Cloudy 32 undefined 23 -5 69 69 ESE 7 11 30.00 1016 10 16 N/A
5:55 am 05:55 Cloudy 32 0.2 22 -5.3 67 67 E 7 11 30.00 1016 10 16 N/A
6:15 am 06:15 Cloudy 33 0.5 23 -4.9 67 67 ESE 3 6 30.03 1017 10 16 N/A
6:35 am 06:35 Cloudy 34 1 24 -4.3 68 68 SE 3 6 30.03 1017 10 16 N/A
6:55 am 06:55 Cloudy 33 0.8 24 -4.6 68 68 N N/A 30.03 1017 10 16 N/A
7:15 am 07:15 Cloudy 32 0.2 25 -4 74 74 N N/A 30.03 1017 10 16 N/A
7:35 am 07:35 Cloudy 32 undefined 25 -3.7 76 76 N N/A 30.03 1017 10 16 N/A
7:55 am 07:55 Cloudy 33 0.4 26 -3.5 75 75 ENE 3 6 30.03 1017 10 16 N/A
8:15 am 08:15 Cloudy 33 0.5 26 -3.5 75 75 N N/A 30.03 1017 10 16 N/A
8:35 am 08:35 Cloudy 34 1.3 26 -3.3 72 72 SE 6 9 30.03 1017 10 16 N/A
8:55 am 08:55 Cloudy 35 1.5 26 -3.2 71 71 ESE 8 13 30.03 1017 10 16 N/A
9:15 am 09:15 Cloudy 36 2.1 27 -3 69 69 ESE 10 17 30.03 1017 10 16 N/A
9:35 am 09:35 Cloudy 36 2 27 -2.7 71 71 SE 10 17 30.03 1017 10 16 N/A
9:55 am 09:55 Cloudy 35 1.7 28 -2 77 77 SE 9 15 30.03 1017 10 16 N/A
10:15 am 10:15 Cloudy 35 1.9 29 -1.6 78 78 SE 10 17 30.06 1018 10 16 N/A
10:35 am 10:35 Cloudy 35 1.8 28 -2.2 75 75 SE 14 22 30.06 1018 10 16 N/A
10:55 am 10:55 Cloudy with Light Snow 35 1.5 29 -1.7 80 80 SE 14 22 30.06 1018 3 4 N/A
11:15 am 11:15 Cloudy with Light Snow 33 0.8 31 -0.8 89 89 ESE 12 19 30.06 1018 2 3 N/A
11:35 am 11:35 Cloudy with Light Snow 33 0.8 31 -0.5 91 91 ESE 10 17 30.06 1018 3 4 N/A
11:55 am 11:55 Cloudy with Light Snow 33 0.5 31 -0.5 93 93 ESE 10 17 30.06 1018 2 3 N/A
12:15 pm 12:15 Cloudy with Light Snow 32 0.1 31 -0.5 96 96 ESE 8 13 30.03 1017 1 1 N/A
12:35 pm 12:35 Cloudy with Light Snow 32 0.1 31 -0.5 96 96 E 7 11 30.03 1017 1 1 0.02 0.51
12:55 pm 12:55 Cloudy with Snow 32 0.1 31 -0.4 96 96 E 7 11 30.03 1017 1 1 0.04 1.02
1:15 pm 13:15 Cloudy with Light Snow 32 0.1 31 -0.3 97 97 E 9 15 30.00 1016 1 1 0.02 0.51
1:35 pm 13:35 Cloudy with Light Snow 32 0.1 31 -0.3 97 97 E 9 15 30.00 1016 1 1 0.02 0.51
1:55 pm 13:55 Cloudy with Light Snow 32 0.1 31 -0.3 97 97 E 13 20 29.97 1015 1 2 0.03 0.76
2:15 pm 14:15 Cloudy with Snow 32 0.1 31 -0.3 97 97 E 12 19 29.97 1015 1 1 0.01 0.25
2:35 pm 14:35 Cloudy with Light Snow 32 0.1 31 -0.3 97 97 E 14 22 29.94 1014 1 2 0.01 0.25
2:55 pm 14:55 Cloudy with Light Snow 32 0.1 31 -0.3 97 97 E 14 22 29.94 1014 1 1 0.02 0.51
3:15 pm 15:15 Cloudy with Light Snow 32 0.1 31 -0.4 96 96 E 16 26 29.94 1014 1 2 N/A
3:35 pm 15:35 Cloudy with Light Snow 32 0.1 31 -0.5 96 96 E 16 26 29.91 1013 1 2 N/A
3:55 pm 15:55 Cloudy with Light Snow 32 undefined 31 -0.5 96 96 E 15 24 29.91 1013 1 2 N/A
4:15 pm 16:15 Cloudy with Light Snow 32 undefined 31 -0.6 96 96 E 14 22 29.91 1013 1 1 N/A
4:35 pm 16:35 Cloudy with Light Snow 32 undefined 31 -0.6 96 96 E 15 24 29.91 1013 1 2 N/A
4:55 pm 16:55 Cloudy with Snow 32 undefined 31 -0.6 96 96 E 15 24 29.91 1013 1 1 0.01 0.25
5:15 pm 17:15 Cloudy with Snow 32 undefined 31 -0.6 96 96 ENE 16 26 29.88 1012 1 1 N/A
5:35 pm 17:35 Cloudy with Light Snow 32 undefined 31 -0.6 96 96 E 15 24 29.91 1013 1 1 N/A
5:55 pm 17:55 Clear 39 3.9 19 -7 45 45 NW 3 6 29.94 1014 10 16 N/A
6:15 pm 18:15 Cloudy with Light Snow 32 -0.1 31 -0.7 96 96 ENE 16 26 29.91 1013 2 3 N/A
6:35 pm 18:35 Cloudy with Light Snow 32 -0.2 31 -0.8 96 96 ENE 18 30 29.88 1012 1 2 N/A
6:55 pm 18:55 Windy with Snow Likely 32 -0.2 30 -0.9 95 95 ENE 20 31 29.88 1012 2 3 N/A
7:15 pm 19:15 Windy with Snow Likely 32 -0.1 31 -0.8 95 95 ENE 21 33 29.91 1013 2 3 N/A
7:35 pm 19:35 Cloudy with Light Snow 32 -0.1 31 -0.8 95 95 E 18 30 29.91 1013 2 3 N/A
7:55 pm 19:55 Cloudy with Light Snow 32 undefined 31 -0.7 95 95 E 16 26 29.91 1013 2 2 0.01 0.25
8:15 pm 20:15 Cloudy with Snow 32 undefined 31 -0.6 96 96 ENE 18 30 29.91 1013 1 2 N/A
8:35 pm 20:35 Windy with Snow Likely 32 undefined 31 -0.7 95 95 ENE 21 33 29.91 1013 1 2 N/A
8:55 pm 20:55 Windy with Snow Likely 32 undefined 31 -0.6 96 96 ENE 20 31 29.91 1013 2 3 0.01 0.25
9:15 pm 21:15 Windy with Snow Likely 32 undefined 31 -0.5 96 96 ENE 24 39 29.88 1012 2 3 N/A
9:35 pm 21:35 Windy with Snow Likely 32 undefined 31 -0.5 96 96 NE 24 39 29.88 1012 7 11 N/A
9:55 pm 21:55 Cloudy 32 undefined 31 -0.5 96 96 NE 28 44 29.88 1012 7 11 N/A
10:15 pm 22:15 Cloudy 32 undefined 31 -0.6 96 96 NE 25 41 29.88 1012 7 11 N/A
10:35 pm 22:35 Windy with Snow Likely 32 undefined 31 -0.7 95 95 NE 26 43 29.88 1012 7 11 N/A
10:55 pm 22:55 Windy with Snow Likely 32 undefined 31 -0.7 95 95 NE 24 39 29.88 1012 3 5 N/A
11:15 pm 23:15 Windy with Snow Likely 32 undefined 31 -0.6 96 96 NE 29 46 29.88 1012 3 4 N/A
11:35 pm 23:35 Windy with Snow Likely 32 undefined 31 -0.5 96 96 NE 24 39 29.88 1012 2 3 N/A
11:55 pm 23:55 Cloudy with Snow 32 undefined 31 -0.7 95 95 NE 24 39 29.83 1010 1 2 0.01 0.25

Powered by AerisWeather